Time,TemperatureF,DewpointF,PressureIn,WindDirection,WindDirectionDegrees,WindSpeedMPH,WindSpeedGustMPH,Humidity,HourlyPrecipIn,Conditions,Clouds,dailyrainin,SoftwareType,DateUTC
2013-06-08 00:02:00,86.0,36.0,29.79,South,169,5.0,6.0,17,0.00,,,0.00,,2013-06-08 07:02:00,
2013-06-08 00:12:00,86.0,36.0,29.79,South,169,5.0,6.0,17,0.00,,,0.00,,2013-06-08 07:12:00,
2013-06-08 00:22:00,84.0,36.0,29.80,South,188,5.0,9.0,18,0.00,,,0.00,,2013-06-08 07:22:00,
2013-06-08 00:32:00,84.0,36.0,29.80,South,181,6.0,7.0,18,0.00,,,0.00,,2013-06-08 07:32:00,
2013-06-08 00:42:00,84.0,36.0,29.80,South,181,6.0,7.0,18,0.00,,,0.00,,2013-06-08 07:42:00,
2013-06-08 00:52:00,83.0,34.0,29.80,SSW,205,2.0,5.0,17,0.00,,,0.00,,2013-06-08 07:52:00,
2013-06-08 01:02:00,83.0,34.0,29.80,SSW,205,4.0,5.0,17,0.00,,,0.00,,2013-06-08 08:02:00,
2013-06-08 01:11:00,83.0,34.0,29.80,SSW,205,4.0,5.0,17,0.00,,,0.00,,2013-06-08 08:11:00,
2013-06-08 01:22:00,83.0,32.0,29.79,SW,214,4.0,7.0,16,0.00,,,0.00,,2013-06-08 08:22:00,
2013-06-08 01:32:00,82.0,31.0,29.79,SW,214,5.0,6.0,16,0.00,,,0.00,,2013-06-08 08:32:00,
2013-06-08 01:42:00,82.0,31.0,29.79,SW,214,5.0,6.0,16,0.00,,,0.00,,2013-06-08 08:42:00,
2013-06-08 01:52:00,81.0,33.0,29.78,SW,214,3.0,7.0,18,0.00,,,0.00,,2013-06-08 08:52:00,
2013-06-08 02:01:00,81.0,35.0,29.78,SSW,206,3.0,5.0,19,0.00,,,0.00,,2013-06-08 09:01:00,
2013-06-08 02:11:00,81.0,35.0,29.78,SSW,206,3.0,5.0,19,0.00,,,0.00,,2013-06-08 09:11:00,
2013-06-08 02:22:00,80.0,35.0,29.79,SSW,205,3.0,5.0,20,0.00,,,0.00,,2013-06-08 09:22:00,
2013-06-08 02:33:00,80.0,35.0,29.79,SSW,205,2.0,3.0,20,0.00,,,0.00,,2013-06-08 09:33:00,
2013-06-08 02:42:00,80.0,35.0,29.79,SSW,205,2.0,3.0,20,0.00,,,0.00,,2013-06-08 09:42:00,
2013-06-08 02:53:00,79.0,34.0,29.79,SSW,207,1.0,4.0,20,0.00,,,0.00,,2013-06-08 09:53:00,
2013-06-08 03:02:00,78.0,32.0,29.79,SSW,207,1.0,4.0,19,0.00,,,0.00,,2013-06-08 10:02:00,
2013-06-08 03:12:00,78.0,32.0,29.79,SSW,207,1.0,4.0,19,0.00,,,0.00,,2013-06-08 10:12:00,
2013-06-08 03:22:00,77.0,33.0,29.80,SSW,207,0.0,0.0,20,0.00,,,0.00,,2013-06-08 10:22:00,
2013-06-08 03:32:00,76.0,32.0,29.80,SSW,207,0.0,1.0,20,0.00,,,0.00,,2013-06-08 10:32:00,
2013-06-08 03:42:00,76.0,32.0,29.80,SSW,207,0.0,1.0,20,0.00,,,0.00,,2013-06-08 10:42:00,
2013-06-08 03:52:00,75.0,30.0,29.81,SSW,207,4.0,4.0,19,0.00,,,0.00,,2013-06-08 10:52:00,
2013-06-08 04:02:00,75.0,31.0,29.81,SSW,201,4.0,6.0,20,0.00,,,0.00,,2013-06-08 11:02:00,
2013-06-08 04:12:00,75.0,31.0,29.81,SSW,201,4.0,6.0,20,0.00,,,0.00,,2013-06-08 11:12:00,
2013-06-08 04:22:00,74.0,32.0,29.78,South,191,4.0,5.0,21,0.00,,,0.00,,2013-06-08 11:22:00,
2013-06-08 04:32:00,74.0,32.0,29.78,South,191,6.0,6.0,21,0.00,,,0.00,,2013-06-08 11:32:00,
2013-06-08 04:42:00,74.0,32.0,29.78,South,191,6.0,6.0,21,0.00,,,0.00,,2013-06-08 11:42:00,
2013-06-08 04:52:00,73.0,31.0,29.79,South,184,3.0,6.0,21,0.00,,,0.00,,2013-06-08 11:52:00,
2013-06-08 05:01:00,73.0,33.0,29.79,SSW,192,3.0,6.0,23,0.00,,,0.00,,2013-06-08 12:01:00,
2013-06-08 05:12:00,73.0,33.0,29.79,SSW,192,3.0,6.0,23,0.00,,,0.00,,2013-06-08 12:12:00,
2013-06-08 05:22:00,73.0,34.0,29.79,SSW,193,3.0,3.0,24,0.00,,,0.00,,2013-06-08 12:22:00,
2013-06-08 05:32:00,72.0,32.0,29.79,SSW,200,2.0,4.0,23,0.00,,,0.00,,2013-06-08 12:32:00,
2013-06-08 05:42:00,72.0,32.0,29.79,SSW,200,2.0,4.0,23,0.00,,,0.00,,2013-06-08 12:42:00,
2013-06-08 05:52:00,72.0,32.0,29.81,WSW,248,1.0,4.0,23,0.00,,,0.00,,2013-06-08 12:52:00,
2013-06-08 06:02:00,72.0,30.0,29.81,South,186,2.0,6.0,21,0.00,,,0.00,,2013-06-08 13:02:00,
2013-06-08 06:12:00,72.0,30.0,29.81,South,186,2.0,6.0,21,0.00,,,0.00,,2013-06-08 13:12:00,
2013-06-08 06:22:00,72.0,31.0,29.82,South,191,5.0,6.0,22,0.00,,,0.00,,2013-06-08 13:22:00,
2013-06-08 06:32:00,72.0,32.0,29.82,SSW,192,4.0,6.0,23,0.00,,,0.00,,2013-06-08 13:32:00,
2013-06-08 06:42:00,72.0,32.0,29.82,SSW,192,4.0,6.0,23,0.00,,,0.00,,2013-06-08 13:42:00,
2013-06-08 06:52:00,74.0,33.0,29.82,South,191,3.0,4.0,22,0.00,,,0.00,,2013-06-08 13:52:00,
2013-06-08 07:02:00,75.0,34.0,29.82,South,191,2.0,4.0,22,0.00,,,0.00,,2013-06-08 14:02:00,
2013-06-08 07:11:00,75.0,34.0,29.82,South,191,2.0,4.0,22,0.00,,,0.00,,2013-06-08 14:11:00,
2013-06-08 07:21:00,78.0,30.0,29.84,SSW,193,1.0,2.0,17,0.00,,,0.00,,2013-06-08 14:21:00,
2013-06-08 07:32:00,80.0,31.0,29.84,SSW,193,0.0,2.0,17,0.00,,,0.00,,2013-06-08 14:32:00,
2013-06-08 07:42:00,80.0,31.0,29.84,SSW,193,0.0,2.0,17,0.00,,,0.00,,2013-06-08 14:42:00,
2013-06-08 07:52:00,84.0,30.0,29.82,WNW,287,3.0,6.0,14,0.00,,,0.00,,2013-06-08 14:52:00,
2013-06-08 08:02:00,86.0,29.0,29.82,WNW,288,2.0,5.0,13,0.00,,,0.00,,2013-06-08 15:02:00,
2013-06-08 08:11:00,86.0,29.0,29.82,WNW,288,2.0,5.0,13,0.00,,,0.00,,2013-06-08 15:11:00,
2013-06-08 08:22:00,89.0,28.0,29.83,North,354,7.0,9.0,11,0.00,,,0.00,,2013-06-08 15:22:00,
2013-06-08 08:32:00,91.0,29.0,29.83,North,355,9.0,13.0,11,0.00,,,0.00,,2013-06-08 15:32:00,
2013-06-08 08:42:00,91.0,29.0,29.83,North,355,9.0,13.0,11,0.00,,,0.00,,2013-06-08 15:42:00,
2013-06-08 08:53:00,95.0,27.0,29.84,North,4,12.0,16.0,9,0.00,,,0.00,,2013-06-08 15:53:00,
2013-06-08 09:02:00,96.0,28.0,29.84,NNW,348,9.0,14.0,9,0.00,,,0.00,,2013-06-08 16:02:00,
2013-06-08 09:12:00,96.0,28.0,29.84,NNW,348,9.0,14.0,9,0.00,,,0.00,,2013-06-08 16:12:00,
2013-06-08 09:22:00,99.0,27.0,29.83,NNE,24,14.0,24.0,8,0.00,,,0.00,,2013-06-08 16:22:00,
2013-06-08 09:32:00,100.0,25.0,29.83,North,360,14.0,19.0,7,0.00,,,0.00,,2013-06-08 16:32:00,
2013-06-08 09:42:00,100.0,25.0,29.83,North,360,14.0,19.0,7,0.00,,,0.00,,2013-06-08 16:42:00,
2013-06-08 09:53:00,101.0,26.0,29.83,NNW,331,15.0,23.0,7,0.00,,,0.00,,2013-06-08 16:53:00,
2013-06-08 10:02:00,102.0,26.0,29.83,NNW,342,13.0,18.0,7,0.00,,,0.00,,2013-06-08 17:02:00,
2013-06-08 10:12:00,102.0,26.0,29.83,NNW,342,13.0,18.0,7,0.00,,,0.00,,2013-06-08 17:12:00,
2013-06-08 10:22:00,102.0,26.0,29.83,North,6,13.0,20.0,7,0.00,,,0.00,,2013-06-08 17:22:00,
2013-06-08 10:32:00,102.0,26.0,29.83,NE,47,12.0,17.0,7,0.00,,,0.00,,2013-06-08 17:32:00,
2013-06-08 10:42:00,102.0,26.0,29.83,NE,47,12.0,17.0,7,0.00,,,0.00,,2013-06-08 17:42:00,
2013-06-08 10:52:00,103.0,27.0,29.83,NE,49,7.0,13.0,7,0.00,,,0.00,,2013-06-08 17:52:00,
2013-06-08 11:01:00,103.0,27.0,29.83,NE,56,7.0,14.0,7,0.00,,,0.00,,2013-06-08 18:01:00,
2013-06-08 11:12:00,103.0,27.0,29.83,NE,56,7.0,14.0,7,0.00,,,0.00,,2013-06-08 18:12:00,
2013-06-08 11:22:00,104.0,24.0,29.83,ENE,65,7.0,12.0,6,0.00,,,0.00,,2013-06-08 18:22:00,
2013-06-08 11:32:00,105.0,25.0,29.83,NE,55,11.0,14.0,6,0.00,,,0.00,,2013-06-08 18:32:00,
2013-06-08 11:41:00,105.0,25.0,29.83,NE,55,11.0,14.0,6,0.00,,,0.00,,2013-06-08 18:41:00,
2013-06-08 11:52:00,106.0,25.0,29.83,ENE,71,4.0,13.0,6,0.00,,,0.00,,2013-06-08 18:52:00,
2013-06-08 12:02:00,107.0,22.0,29.83,East,80,5.0,12.0,5,0.00,,,0.00,,2013-06-08 19:02:00,
2013-06-08 12:12:00,107.0,22.0,29.83,East,80,5.0,12.0,5,0.00,,,0.00,,2013-06-08 19:12:00,
2013-06-08 12:22:00,108.0,23.0,29.82,East,87,6.0,15.0,5,0.00,,,0.00,,2013-06-08 19:22:00,
2013-06-08 12:32:00,108.0,23.0,29.82,NE,55,13.0,17.0,5,0.00,,,0.00,,2013-06-08 19:32:00,
2013-06-08 12:42:00,108.0,23.0,29.82,NE,55,13.0,17.0,5,0.00,,,0.00,,2013-06-08 19:42:00,
2013-06-08 12:53:00,108.0,23.0,29.83,East,79,2.0,14.0,5,0.00,,,0.00,,2013-06-08 19:53:00,
2013-06-08 13:02:00,108.0,23.0,29.83,ENE,77,8.0,13.0,5,0.00,,,0.00,,2013-06-08 20:02:00,
2013-06-08 13:11:00,108.0,23.0,29.83,ENE,77,8.0,13.0,5,0.00,,,0.00,,2013-06-08 20:11:00,
2013-06-08 13:22:00,108.0,23.0,29.82,ENE,58,4.0,15.0,5,0.00,,,0.00,,2013-06-08 20:22:00,
2013-06-08 13:32:00,108.0,23.0,29.82,ENE,72,17.0,22.0,5,0.00,,,0.00,,2013-06-08 20:32:00,
2013-06-08 13:42:00,108.0,23.0,29.82,ENE,72,17.0,22.0,5,0.00,,,0.00,,2013-06-08 20:42:00,
2013-06-08 13:52:00,108.0,23.0,29.82,East,84,11.0,25.0,5,0.00,,,0.00,,2013-06-08 20:52:00,
2013-06-08 14:02:00,109.0,23.0,29.82,East,88,9.0,19.0,5,0.00,,,0.00,,2013-06-08 21:02:00,
2013-06-08 14:12:00,109.0,23.0,29.82,East,88,9.0,19.0,5,0.00,,,0.00,,2013-06-08 21:12:00,
2013-06-08 14:22:00,109.0,23.0,29.81,ENE,75,15.0,20.0,5,0.00,,,0.00,,2013-06-08 21:22:00,
2013-06-08 14:32:00,109.0,23.0,29.81,ENE,74,9.0,15.0,5,0.00,,,0.00,,2013-06-08 21:32:00,
2013-06-08 14:43:00,109.0,23.0,29.81,ENE,74,9.0,15.0,5,0.00,,,0.00,,2013-06-08 21:43:00,
2013-06-08 14:53:00,109.0,23.0,29.81,ENE,78,10.0,17.0,5,0.00,,,0.00,,2013-06-08 21:53:00,
2013-06-08 15:02:00,109.0,23.0,29.81,NNE,12,4.0,16.0,5,0.00,,,0.00,,2013-06-08 22:02:00,
2013-06-08 15:12:00,110.0,24.0,29.80,ENE,58,3.0,12.0,5,0.00,,,0.00,,2013-06-08 22:12:00,
2013-06-08 15:22:00,110.0,24.0,29.80,ENE,58,3.0,12.0,5,0.00,,,0.00,,2013-06-08 22:22:00,
2013-06-08 15:33:00,110.0,24.0,29.80,East,86,7.0,12.0,5,0.00,,,0.00,,2013-06-08 22:33:00,
2013-06-08 15:42:00,111.0,19.0,29.79,ESE,105,2.0,11.0,4,0.00,,,0.00,,2013-06-08 22:42:00,
2013-06-08 15:52:00,111.0,19.0,29.79,ESE,105,2.0,11.0,4,0.00,,,0.00,,2013-06-08 22:52:00,
2013-06-08 16:01:00,111.0,25.0,29.79,NNE,15,14.0,21.0,5,0.00,,,0.00,,2013-06-08 23:01:00,
2013-06-08 16:12:00,110.0,19.0,29.75,NE,35,12.0,16.0,4,0.00,,,0.00,,2013-06-08 23:12:00,
2013-06-08 16:22:00,110.0,19.0,29.75,NE,35,12.0,16.0,4,0.00,,,0.00,,2013-06-08 23:22:00,
2013-06-08 16:32:00,110.0,19.0,29.75,NE,47,12.0,14.0,4,0.00,,,0.00,,2013-06-08 23:32:00,
2013-06-08 16:42:00,110.0,19.0,29.75,NE,47,12.0,14.0,4,0.00,,,0.00,,2013-06-08 23:42:00,
2013-06-08 16:52:00,111.0,19.0,29.76,ESE,103,2.0,7.0,4,0.00,,,0.00,,2013-06-08 23:52:00,
2013-06-08 17:01:00,111.0,19.0,29.76,East,89,4.0,17.0,4,0.00,,,0.00,,2013-06-09 00:01:00,
2013-06-08 17:12:00,111.0,19.0,29.76,East,89,4.0,17.0,4,0.00,,,0.00,,2013-06-09 00:12:00,
2013-06-08 17:22:00,111.0,19.0,29.75,ESE,117,8.0,16.0,4,0.00,,,0.00,,2013-06-09 00:22:00,
2013-06-08 17:32:00,111.0,19.0,29.75,ESE,111,6.0,12.0,4,0.00,,,0.00,,2013-06-09 00:32:00,
2013-06-08 17:42:00,111.0,19.0,29.75,ESE,111,6.0,12.0,4,0.00,,,0.00,,2013-06-09 00:42:00,
2013-06-08 17:52:00,111.0,19.0,29.74,East,79,4.0,11.0,4,0.00,,,0.00,,2013-06-09 00:52:00,
2013-06-08 18:02:00,110.0,19.0,29.74,NE,56,6.0,11.0,4,0.00,,,0.00,,2013-06-09 01:02:00,
2013-06-08 18:11:00,109.0,18.0,29.74,NE,53,9.0,13.0,4,0.00,,,0.00,,2013-06-09 01:11:00,
2013-06-08 18:22:00,109.0,18.0,29.74,NE,53,9.0,13.0,4,0.00,,,0.00,,2013-06-09 01:22:00,
2013-06-08 18:32:00,109.0,28.0,29.74,ESE,109,4.0,13.0,6,0.00,,,0.00,,2013-06-09 01:32:00,
2013-06-08 18:42:00,109.0,28.0,29.74,ESE,109,4.0,13.0,6,0.00,,,0.00,,2013-06-09 01:42:00,
2013-06-08 18:52:00,109.0,23.0,29.76,SSE,162,5.0,23.0,5,0.00,,,0.00,,2013-06-09 01:52:00,
2013-06-08 19:02:00,109.0,28.0,29.76,South,176,10.0,18.0,6,0.00,,,0.00,,2013-06-09 02:02:00,
2013-06-08 19:12:00,109.0,28.0,29.76,South,176,10.0,18.0,6,0.00,,,0.00,,2013-06-09 02:12:00,
2013-06-08 19:22:00,107.0,26.0,29.74,SSW,205,14.0,18.0,6,0.00,,,0.00,,2013-06-09 02:22:00,
2013-06-08 19:32:00,106.0,25.0,29.74,South,184,13.0,18.0,6,0.00,,,0.00,,2013-06-09 02:32:00,
2013-06-08 19:42:00,106.0,25.0,29.74,South,184,13.0,18.0,6,0.00,,,0.00,,2013-06-09 02:42:00,
2013-06-08 19:52:00,105.0,25.0,29.75,South,181,15.0,18.0,6,0.00,,,0.00,,2013-06-09 02:52:00,
2013-06-08 20:02:00,104.0,31.0,29.75,SSE,154,8.0,19.0,8,0.00,,,0.00,,2013-06-09 03:02:00,
2013-06-08 20:12:00,104.0,31.0,29.75,SSE,154,8.0,19.0,8,0.00,,,0.00,,2013-06-09 03:12:00,
2013-06-08 20:22:00,100.0,25.0,29.77,SE,146,16.0,21.0,7,0.00,,,0.00,,2013-06-09 03:22:00,
2013-06-08 20:32:00,98.0,30.0,29.77,SSE,153,15.0,23.0,9,0.00,,,0.00,,2013-06-09 03:32:00,
2013-06-08 20:43:00,98.0,30.0,29.77,SSE,153,15.0,23.0,9,0.00,,,0.00,,2013-06-09 03:43:00,
2013-06-08 20:53:00,98.0,39.0,29.79,South,179,13.0,17.0,13,0.00,,,0.00,,2013-06-09 03:53:00,
2013-06-08 21:02:00,98.0,41.0,29.79,South,179,11.0,17.0,14,0.00,,,0.00,,2013-06-09 04:02:00,
2013-06-08 21:22:00,97.0,40.0,29.80,SSW,192,13.0,19.0,14,0.00,,,0.00,,2013-06-09 04:22:00,
2013-06-08 21:32:00,97.0,38.0,29.80,SSW,195,11.0,16.0,13,0.00,,,0.00,,2013-06-09 04:32:00,
2013-06-08 21:42:00,97.0,38.0,29.80,SSW,195,11.0,16.0,13,0.00,,,0.00,,2013-06-09 04:42:00,
2013-06-08 21:53:00,97.0,42.0,29.80,SSW,205,11.0,18.0,15,0.00,,,0.00,,2013-06-09 04:53:00,
2013-06-08 22:02:00,96.0,39.0,29.80,SW,219,9.0,16.0,14,0.00,,,0.00,,2013-06-09 05:02:00,
2013-06-08 22:12:00,96.0,39.0,29.80,SW,219,9.0,16.0,14,0.00,,,0.00,,2013-06-09 05:12:00,
2013-06-08 22:22:00,95.0,42.0,29.83,South,188,13.0,19.0,16,0.00,,,0.00,,2013-06-09 05:22:00,
2013-06-08 22:32:00,94.0,43.0,29.83,South,188,12.0,17.0,17,0.00,,,0.00,,2013-06-09 05:32:00,
2013-06-08 22:42:00,94.0,43.0,29.83,South,188,12.0,17.0,17,0.00,,,0.00,,2013-06-09 05:42:00,
2013-06-08 22:52:00,93.0,43.0,29.83,South,189,11.0,14.0,18,0.00,,,0.00,,2013-06-09 05:52:00,
2013-06-08 23:02:00,92.0,44.0,29.83,South,190,9.0,15.0,19,0.00,,,0.00,,2013-06-09 06:02:00,
2013-06-08 23:11:00,92.0,44.0,29.83,South,190,9.0,15.0,19,0.00,,,0.00,,2013-06-09 06:11:00,
2013-06-08 23:22:00,91.0,43.0,29.81,SSW,193,12.0,15.0,19,0.00,,,0.00,,2013-06-09 06:22:00,
2013-06-08 23:32:00,90.0,42.0,29.81,SSW,203,9.0,15.0,19,0.00,,,0.00,,2013-06-09 06:32:00,
2013-06-08 23:42:00,90.0,42.0,29.81,SSW,203,9.0,15.0,19,0.00,,,0.00,,2013-06-09 06:42:00,
2013-06-08 23:52:00,91.0,43.0,29.82,SSW,212,11.0,16.0,19,0.00,,,0.00,,2013-06-09 06:52:00,